Presure
131 127 128 145 123 133 145 151 152 144 131 140 152 145 165 147 145 137 153 176 174 165 227 186 165 197 179 185 183 198 194 170 100 185 166 177 163 166 163 142 171 174 182
142 185 129 187 134 160 175 133 139 143 142 165 151 137 150 160 166 144 179 180 210 132 94 179 188 172 159 178 161 186 226 173 100 159 171 164 179 162 155 177 179 172 96
161 208 198 190 189 186 189 182 189 194 172 183 137 237 211 222 113 104 104 210 195 202 172 191 169 170 150 165 187 193 199 158 179 155 155 168 161 154 171 96 176 166 174
212 218 176 213 207 202 206 205 200 198 187 135 140 192 195 184 197 184 182 182 183 165 168 179 175 141 120 184 144 164 146 181 164 159 159 150 166 166 166 189 175 189 189
176 133 199 219 220 204 206 90 197 197 195 195 193 149 185 188 184 178 175 172 171 186 179 186 163 157 170 188 132 208 183 194 157 158 160 164 170 171 181 181 194 194 205
80 134 168 210 212 214 216 218 215 207 200 197 194 194 194 192 189 179 179 169 173 158 129 167 148 163 172 191 195 172 195 174 198 100 165 171 176 175 189 181 195 201 193
215 216 175 210 207 206 209 211 213 215 219 207 201 194 191 188 190 191 195 192 187 186 177 166 169 183 188 189 192 123 199 172 195 172 183 182 165 182 187 200 193 204 204
219 98 126 212 211 210 172 211 212 213 213 210 208 204 199 195 199 200 197 201 201 199 194 192 185 194 127 170 199 201 180 194 182 184 198 189 181 187 202 190 206 172 207
113 228 223 219 216 216 216 218 214 211 212 208 210 208 203 201 200 198 192 195 198 195 193 192 98 190 189 192 187 187 189 192 190 194 189 193 204 187 205 197 204 212 207
82 235 230 228 226 226 224 224 220 220 219 214 213 212 209 209 211 204 201 201 203 189 194 194 140 105 189 198 197 193 192 191 189 194 190 196 192 200 206 188 214 188 206
81 262 250 240 237 232 227 223 171 221 221 221 222 219 217 216 216 213 209 209 190 205 203 202 202 201 201 199 178 160 159 173 132 198 197 187 197 208 163 207 194 164 202
155 215 272 277 269 253 245 241 164 232 229 227 226 226 225 225 220 218 156 216 215 214 210 205 206 199 126 89 90 200 202 202 200 203 202 200 199 192 204 191 161 202 213
248 241 240 240 244 260 272 271 266 255 248 245 240 237 235 235 232 147 209 222 216 215 212 210 206 194 91 208 161 207 206 207 207 199 194 181 200 186 182 192 199 217 206
354 353 288 279 263 253 247 249 255 251 271 266 150 113 96 94 247 244 243 238 207 122 227 201 212 216 218 213 209 207 206 204 205 197 189 163 199 186 197 200 219 205 220
433 436 359 458 78 335 362 294 148 252 76 252 212 253 245 243 251 264 267 262 253 248 248 246 241 240 242 248 242 227 216 224 223 194 187 209 203 199 217 212 199 225 210
346 350 350 363 91 272 422 212 451 437 439 398 240 245 204 262 261 256 252 248 257 268 262 249 241 238 244 247 244 211 296 237 233 240 230 226 225 226 195 211 200 218 217
401 390 392 335 343 345 254 399 395 403 417 432 447 460 362 243 247 251 254 243 262 257 248 245 238 234 226 220 222 300 206 205 209 212 232 211 229 204 206 204 232 211 224
353 364 382 398 412 418 368 328 316 345 379 384 406 420 434 438 439 424 305 265 257 251 240 254 254 248 247 241 241 222 227 227 211 246 223 220 214 215 213 224 169 222 225
340 344 351 360 366 372 376 381 385 89 342 357 357 372 399 409 427 424 388 372 372 294 247 239 236 231 229 233 230 218 210 205 204 156 214 223 229 214 214 244 243 247 260
337 93 347 347 347 346 343 343 343 349 354 359 360 367 386 411 435 408 420 403 350 359 306 125 219 231 223 220 218 214 210 210 206 210 210 208 199 215 219 228 223 258 238
316 308 222 311 313 211 260 332 339 349 355 365 353 348 356 353 377 414 396 420 361 359 319 298 287 291 151 230 224 218 215 214 229 210 211 214 206 161 221 218 222 182 227
285 92 265 179 319 271 341 361 345 338 349 370 365 349 345 342 346 370 411 406 420 422 351 332 308 294 279 294 290 271 162 262 243 191 218 187 215 222 237 232 212 210 200
281 287 296 325 467 430 418 369 354 357 363 361 363 367 370 357 344 341 387 424 417 469 388 385 303 301 283 278 254 263 258 224 246 232 230 254 236 230 244 231 233 243 238
280 277 286 296 374 418 382 364 362 363 388 405 400 436 382 346 348 356 363 385 480 470 381 363 337 315 305 269 252 258 236 237 238 237 228 241 246 247 241 231 237 230 243
270 271 277 282 322 367 388 386 390 405 412 408 403 358 344 345 347 352 362 460 416 400 383 340 325 280 267 239 257 253 230 238 242 257 252 228 241 237 232 245 238 234 254
266 288 263 276 278 297 385 380 379 369 349 334 336 334 340 346 365 378 393 385 373 379 331 299 292 273 262 248 256 280 260 246 240 241 238 241 245 240 241 234 249 263 263
Wind_Speed
97 95 97 105 95 106 115 113 108 111 99 107 104 104 99 100 106 61 107 90 78 91 81 92 90 86 83 83 80 76 71 65 41 67 80 84 90 90 93 77 96 101 105
100 110 98 107 105 113 109 110 101 114 111 106 106 105 104 104 102 71 95 92 90 60 31 74 87 80 80 81 75 72 71 63 34 78 84 89 91 89 87 101 106 102 54
111 113 113 114 113 113 111 112 112 111 93 109 59 88 91 90 46 44 33 88 84 81 65 82 86 86 77 84 84 68 63 68 62 81 88 90 94 91 105 47 107 92 102
117 114 83 116 115 115 117 118 115 113 111 71 72 105 89 90 81 83 76 85 80 90 90 84 77 76 56 96 76 70 64 58 62 77 88 81 96 100 103 110 104 110 108
91 54 107 117 113 113 113 42 109 112 111 111 110 81 105 100 90 100 98 96 99 83 87 92 89 87 94 94 62 77 64 68 78 86 91 94 98 104 107 109 109 111 110
21 67 92 121 119 117 115 113 111 110 110 111 110 108 107 104 102 100 97 100 92 94 59 98 75 91 95 95 89 82 75 76 82 42 94 96 101 103 108 105 113 110 110
126 127 97 123 122 120 118 117 116 113 109 108 109 108 108 108 108 106 106 104 102 97 99 97 98 103 101 96 94 53 89 83 87 81 95 99 89 105 107 108 110 107 105
123 25 56 125 124 124 93 122 120 118 116 112 110 108 108 109 109 108 107 106 104 103 101 101 97 101 56 86 98 97 91 91 91 95 99 97 102 106 103 107 107 74 103
41 130 130 130 129 128 127 125 122 120 119 117 115 113 111 111 109 109 108 107 107 106 104 103 36 103 103 101 99 99 97 97 96 97 98 102 101 104 107 105 105 105 104
15 130 130 130 131 130 129 127 124 124 122 120 119 118 116 115 113 111 111 111 110 103 106 107 69 47 103 103 102 101 100 97 99 100 101 101 103 105 102 101 99 94 109
16 127 129 131 130 129 128 128 82 125 125 124 124 123 121 120 119 116 114 112 99 110 109 109 109 108 106 103 91 80 81 89 67 103 103 91 103 99 71 97 102 65 111
57 94 121 125 129 129 131 131 76 130 130 130 129 127 125 123 120 118 70 115 114 113 111 110 109 105 61 42 46 102 104 103 103 101 102 98 100 83 97 101 60 115 114
118 115 115 114 115 120 124 126 127 127 128 128 130 131 130 129 127 69 109 118 117 117 114 112 109 102 45 110 82 104 102 103 100 89 97 91 100 95 93 109 114 105 118
98 101 121 124 123 121 119 117 117 111 121 124 63 45 37 35 127 127 126 122 107 60 116 102 108 109 110 106 104 101 101 102 101 96 100 69 107 97 111 111 101 114 113
65 69 56 70 28 59 109 113 59 117 19 118 97 122 117 117 120 120 121 122 121 119 117 113 109 107 106 103 100 99 99 102 99 86 77 107 108 114 116 111 108 108 116
68 69 68 68 28 54 69 45 69 79 83 86 111 114 93 118 118 115 113 111 113 114 113 106 100 95 93 88 86 86 74 83 90 90 96 101 81 99 100 111 108 114 112
43 48 51 69 69 70 55 62 61 63 61 59 60 65 111 111 111 111 108 103 107 107 106 105 99 93 88 84 83 61 99 91 95 96 93 95 88 101 108 112 108 112 117
34 35 37 36 39 43 57 64 66 59 56 57 56 60 61 66 75 95 110 108 103 97 95 97 97 92 86 82 81 84 89 89 90 89 94 96 97 101 107 109 63 114 114
34 32 32 32 34 36 38 40 42 39 56 54 57 57 55 59 63 72 95 97 91 98 93 90 91 88 87 83 80 83 83 85 89 42 93 96 98 98 104 107 113 114 107
29 17 28 30 34 39 43 46 48 48 50 50 51 48 44 42 45 55 64 86 90 91 91 34 78 89 86 86 84 82 82 86 93 96 98 99 84 100 103 103 87 99 96
8 18 22 25 30 35 36 44 47 43 48 54 55 54 49 49 42 42 54 54 85 89 88 87 86 83 38 91 89 87 91 92 93 96 101 102 101 46 101 97 96 60 100
16 35 25 33 37 41 45 44 47 49 46 44 55 59 56 49 48 41 37 47 50 65 86 89 69 80 77 61 60 71 47 69 79 74 101 68 103 94 99 97 90 89 79
16 23 29 30 25 24 27 35 44 46 45 43 46 54 52 44 47 41 29 29 41 45 65 72 79 85 72 74 75 68 69 65 77 86 95 86 88 96 93 86 93 93 99
19 20 24 30 30 10 16 24 32 39 44 37 41 37 35 40 35 29 27 28 28 28 55 56 61 70 70 68 71 65 75 80 83 87 83 92 92 92 87 89 94 93 100
16 21 24 23 23 25 9 6 7 12 10 13 20 27 28 26 26 27 25 23 32 46 48 46 51 57 61 69 64 70 80 80 79 75 86 80 85 87 88 92 93 94 97
14 18 16 26 13 22 17 4 6 9 12 11 14 16 15 14 20 13 13 22 33 40 42 49 60 63 66 73 67 58 77 81 81 82 84 84 85 87 89 85 93 89 88
Wind_Direction
258 262 264 257 269 269 267 267 266 271 281 275 274 281 276 285 286 268 288 281 279 289 284 289 290 292 294 297 298 303 306 303 303 304 296 299 305 306 307 306 307 308 309
255 257 260 259 261 254 263 270 274 269 272 267 269 280 277 277 278 279 280 281 279 277 293 278 287 285 291 293 299 305 303 298 298 300 297 297 297 304 307 301 302 307 309
257 246 249 253 256 261 262 263 265 264 266 269 275 265 267 266 276 282 281 278 280 284 272 286 284 287 292 295 297 296 303 291 295 300 294 293 297 305 296 312 298 307 304
254 251 250 247 250 253 253 254 259 261 267 270 272 271 270 272 272 273 273 276 280 279 280 281 278 287 291 290 294 294 281 272 275 284 289 288 291 293 295 292 298 297 299
251 259 255 253 250 250 253 284 257 258 261 262 263 267 268 268 266 270 270 272 275 273 272 276 284 290 285 284 292 289 279 279 287 288 286 289 287 288 290 294 296 297 300
246 254 253 254 255 256 255 253 252 253 255 259 262 263 266 267 267 267 268 270 269 280 278 280 282 283 283 284 285 283 284 276 286 300 287 284 286 290 292 297 295 298 298
250 251 253 252 254 256 257 258 259 258 256 253 255 257 260 262 263 264 264 265 268 270 272 277 281 279 279 283 285 291 286 285 286 285 287 287 290 292 294 295 297 296 297
251 254 257 254 254 255 257 257 258 258 259 258 257 256 257 260 262 263 263 265 265 266 267 269 275 277 285 284 283 284 285 285 288 288 290 289 290 292 293 296 296 299 298
258 250 251 252 253 255 255 256 257 258 258 258 259 259 258 259 260 261 264 265 267 268 269 271 284 274 276 279 280 281 283 285 287 287 288 289 290 292 294 295 297 297 298
229 249 251 252 253 254 255 256 256 257 257 258 259 259 261 261 261 260 261 262 263 265 267 268 274 286 274 277 278 280 281 284 285 287 288 289 290 291 291 297 296 299 301
230 250 250 251 252 253 254 255 256 257 258 258 258 258 259 259 260 260 261 262 264 263 264 266 268 270 273 275 278 282 284 284 290 288 289 291 290 290 296 296 295 300 303
254 256 254 254 253 252 253 254 251 254 255 258 258 259 259 259 260 261 263 262 262 262 264 265 268 270 279 285 287 279 281 283 284 286 287 288 288 292 292 296 302 298 298
253 254 254 253 253 255 255 255 254 254 255 256 256 257 258 258 259 265 260 259 260 262 264 266 268 270 283 273 278 278 279 281 283 287 285 284 286 289 293 292 294 290 299
256 257 253 253 254 255 255 255 255 255 255 254 260 265 261 270 259 259 260 260 261 273 261 264 265 267 268 270 273 276 278 279 280 277 276 288 280 285 286 289 285 294 290
261 260 261 258 261 259 256 255 258 255 264 255 255 256 256 257 259 259 260 260 261 261 262 263 264 266 269 270 271 272 273 273 272 279 280 272 276 280 283 285 292 286 292
267 265 262 259 269 261 260 257 258 256 257 255 255 256 257 254 255 256 258 259 260 261 261 262 264 266 268 268 269 269 265 271 270 269 267 271 275 273 284 282 291 286 288
279 274 268 263 262 259 258 258 258 259 257 256 255 254 250 257 257 257 255 255 255 257 260 263 263 263 262 263 264 253 267 270 272 274 271 276 268 277 277 284 277 286 283
275 276 273 265 259 255 257 256 255 257 260 259 257 253 249 248 245 245 251 255 255 254 255 256 259 260 260 259 257 257 258 265 268 262 268 271 271 270 274 274 286 279 284
282 280 276 270 265 262 260 259 258 266 258 257 257 257 253 251 247 241 240 240 237 248 253 253 255 258 260 259 257 258 262 264 266 288 271 269 269 273 275 273 273 276 280
275 267 279 276 271 267 265 264 263 260 259 255 253 253 251 254 254 246 243 241 241 233 242 277 253 252 255 258 259 260 263 265 266 268 269 271 276 273 275 277 282 280 285
284 278 279 283 279 252 277 268 263 262 265 260 257 252 249 250 252 253 242 242 238 232 236 235 243 248 285 250 253 256 258 260 259 264 266 268 272 291 276 281 284 296 288
296 270 292 280 292 281 275 261 258 257 261 253 248 251 252 249 251 254 256 243 239 229 234 232 236 241 244 244 248 250 288 255 255 269 261 278 269 274 274 278 284 287 295
305 312 313 324 296 267 244 241 252 259 257 256 251 249 247 240 247 251 248 249 238 230 224 227 221 230 235 238 245 250 251 259 253 258 260 264 271 273 276 282 283 288 288
325 319 325 332 0 276 248 259 263 264 263 249 248 241 208 225 235 236 241 248 210 213 215 219 222 226 226 234 241 245 247 252 255 259 266 266 268 274 280 280 284 290 292
329 326 340 347 2 2 321 303 313 264 218 185 165 178 203 217 226 232 240 193 202 206 196 198 212 219 225 231 236 235 245 250 255 254 257 268 274 277 280 284 287 291 293
324 319 333 343 357 1 13 18 98 149 157 157 176 193 206 235 233 220 167 181 197 182 172 195 207 215 224 232 234 238 237 245 251 258 265 268 272 277 280 286 287 291 292